Regional Weather Roundup
Issued by NWS

Home | Current Version | Previous Version | Graphics & Text | Print | Product List | Glossary On
Versions: 1 2 3 4 5 6 7 8 9 10 11 12 13 14 15 16 17 18 19 20 21 22 23 24 25 26 27 28 29 30 31 32 33 34 35 36 37 38 39 40 41 42 43 44 45 46 47 48 49 50
000
ASUS43 KOAX 310110
RWRNE

WEATHER ROUNDUP FOR NEBRASKA
NATIONAL WEATHER SERVICE OMAHA NE
800 PM CDT MON MAY 30 2016

NOTES: SATELLITE DATA IS BEING USED TO AUGMENT CLOUD COVER ABOVE
       12000 FEET.
       "FAIR" INDICATES FEW OR NO CLOUDS BELOW 12,000 FEET WITH NO
       SIGNIFICANT WEATHER AND/OR OBSTRUCTIONS TO VISIBILITY.

  * THESE STATIONS DO NOT REPORT WEATHER SUCH AS RAIN...SNOW OR FOG.

NEZ001>004-019>022-054>056-310200-
NEBRASKA PANHANDLE

CITY           SKY/WX    TMP DP  RH WIND       PRES   REMARKS
SCOTTSBLUFF    CLOUDY    69  48  47 W5        29.93R
ALLIANCE       CLOUDY    66  47  50 W9        29.91R
CHADRON        MOSUNNY   75  43  31 N13       29.90R
KIMBALL        CLOUDY    69  45  42 SE3       29.99R
SIDNEY         CLOUDY    61  52  72 S6        29.94F
$$

NEZ057>060-069>072-079>082-310200-
SOUTHWEST NEBRASKA

CITY           SKY/WX    TMP DP  RH WIND       PRES   REMARKS
NORTH PLATTE   TSTM      61  54  77 W25G37    29.87R
IMPERIAL       CLOUDY    62  51  67 N23G35    29.90F
LEXINGTON      CLOUDY    76  55  47 S14       29.81F
MCCOOK         CLOUDY    74  55  51 NW36G45   29.89R SQUALL
OGALLALA       LGT RAIN  61  53  74 SE5       29.89F
$$

NEZ005>010-023>029-035>040-094-310200-
NORTH CENTRAL NEBRASKA

CITY           SKY/WX    TMP DP  RH WIND       PRES   REMARKS
VALENTINE      CLOUDY    60  54  80 SW13      29.85R
AINSWORTH      CLOUDY    65  52  62 W22G32    29.85R
BROKEN BOW     CLOUDY    75  57  53 S9        29.80F
O`NEILL        CLOUDY    76  58  53 S6        29.78F
ORD            CLEAR     77  56  48 S8        29.79S
THEDFORD       TSTM      62  54  74 SE3G21    29.82R
$$

NEZ041-046>049-061>064-073>077-083>087-310200-
SOUTH CENTRAL NEBRASKA

CITY           SKY/WX    TMP DP  RH WIND       PRES   REMARKS
GRAND ISLAND   CLEAR     77  58  51 S15       29.83F
AURORA         CLEAR     78  57  48 S15       29.83F
HASTINGS       CLEAR     77  57  50 S12       29.84S
HEBRON         CLEAR     79  60  51 S10       29.86R
HOLDREGE       CLOUDY    76  55  48 S10       29.83F
KEARNEY *      CLOUDY    77  55  47 S16G23    29.84S
YORK           CLEAR     79  57  47 S15G21    29.85S
$$

NEZ011>018-030>034-042>045-310200-
NORTHEAST NEBRASKA

CITY           SKY/WX    TMP DP  RH WIND       PRES   REMARKS
NORFOLK        CLEAR     79  55  43 S10       29.80S
ALBION         CLEAR     79  56  44 S17G23    29.81F
BLAIR          CLOUDY    73  61  66 SE16G22   29.88R
FREMONT        PTCLDY    76  61  58 SE20G25   29.86R
TEKAMAH        CLEAR     72  62  71 SE13      29.85R
WAYNE          CLEAR     81  56  41 S12       29.81R
$$

NEZ050>053-065>068-078-088>093-310200-
SOUTHEAST NEBRASKA

CITY           SKY/WX    TMP DP  RH WIND       PRES   REMARKS
LINCOLN        CLEAR     80  57  45 S10       29.86R
OMAHA EPPLEY   CLOUDY    73  62  68 SE20G25   29.89R
BEATRICE       CLEAR     79  60  51 S10       29.87R
FALLS CITY     LGT RAIN  77  67  71 S12G21    29.91R
NEBRASKA CITY  CLOUDY    69  60  73 SE10      29.90S
PLATTSMOUTH    CLOUDY    72  62  71 SE14G20   29.91R
$$

NEZ044-045-051>053-067-310200-
OMAHA AREA

CITY           SKY/WX    TMP DP  RH WIND       PRES   REMARKS
OMAHA EPPLEY   CLOUDY    73  62  68 SE20G25   29.89R
BLAIR          CLOUDY    73  61  66 SE16G22   29.88R
FREMONT        PTCLDY    76  61  58 SE20G25   29.86R
MILLARD        CLOUDY    74  62  68 SE16      29.89R
OFFUTT AFB     PTCLDY    72  62  70 SE21G31   29.89R THUNDER
PLATTSMOUTH    CLOUDY    72  62  71 SE14G20   29.91R
WAHOO          FAIR      78  60  53 SE16      29.86R
$$




USA.gov is the U.S. government's official web portal to all federal, state and local government web resources and services.